EDW210 LSZH-LGSA

Flight info

Callsign EDW210
Flight time 2h 25m
Altitude 37000
Route GERSA Z50 RESIA DCT LAREN DCT TORPO DCT AZHIF DCT TIGRA UL995 KRK UA14 ARA UL612 TRL UJ65 SOKRI
Aircraft A320/M-SDE2E3FGHIJ1RWXY/LB1

Departure

Time 2026-05-04 18:28
Airport Zürich Airport (LSZH)

Arrival

Time 2026-05-04 20:53
Airport Chania International Airport (LGSA)
Time Latitude Longitude Altitude Speed Heading
2026-05-04 17:52 47.45353 8.55647 1412 ft 0 kts
2026-05-04 18:19 47.45347 8.55646 1406 ft 4 kts
2026-05-04 18:19 47.45320 8.55645 1411 ft 4 kts 356°
2026-05-04 18:20 47.45293 8.55650 1406 ft 4 kts 341°
2026-05-04 18:20 47.45272 8.55668 1413 ft 4 kts 298°
2026-05-04 18:20 47.45268 8.55680 1406 ft 0 kts 276°
2026-05-04 18:22 47.45268 8.55677 1410 ft 1 kts 276°
2026-05-04 18:22 47.45272 8.55631 1411 ft 8 kts 276°
2026-05-04 18:23 47.45320 8.55547 1412 ft 15 kts 333°
2026-05-04 18:23 47.45440 8.55464 1404 ft 22 kts 335°
2026-05-04 18:23 47.45524 8.55459 1410 ft 9 kts 67°
2026-05-04 18:23 47.45521 8.55563 1410 ft 12 kts 95°
2026-05-04 18:24 47.45510 8.55713 1410 ft 18 kts 97°
2026-05-04 18:24 47.45495 8.55920 1411 ft 22 kts 96°
2026-05-04 18:24 47.45479 8.56138 1411 ft 19 kts 96°
2026-05-04 18:24 47.45522 8.56293 1414 ft 16 kts 51°
2026-05-04 18:25 47.45590 8.56421 1417 ft 15 kts 64°
2026-05-04 18:25 47.45587 8.56580 1418 ft 16 kts 95°
2026-05-04 18:25 47.45576 8.56748 1419 ft 17 kts 96°
2026-05-04 18:25 47.45563 8.56925 1420 ft 16 kts 96°
2026-05-04 18:26 47.45621 8.57023 1425 ft 11 kts
2026-05-04 18:26 47.45667 8.56990 1424 ft 6 kts 279°
2026-05-04 18:26 47.45667 8.56977 1424 ft 0 kts 274°
2026-05-04 18:27 47.45675 8.56866 1422 ft 40 kts 275°
2026-05-04 18:27 47.45729 8.56073 1412 ft 112 kts 276°
2026-05-04 18:27 47.45831 8.54639 1440 ft 160 kts 276°
2026-05-04 18:28 47.45960 8.52982 1982 ft 166 kts 276°
2026-05-04 18:28 47.46083 8.51254 2635 ft 170 kts 275°
2026-05-04 18:28 47.46196 8.49499 3234 ft 178 kts 275°
2026-05-04 18:28 47.46114 8.47584 3505 ft 197 kts 247°
2026-05-04 18:29 47.45225 8.45989 3864 ft 212 kts 219°
2026-05-04 18:29 47.44016 8.44532 4048 ft 238 kts 223°
2026-05-04 18:29 47.42834 8.42636 4364 ft 263 kts 232°
2026-05-04 18:29 47.41870 8.40762 4964 ft 270 kts 234°
2026-05-04 18:30 47.39709 8.37293 6297 ft 278 kts 209°
2026-05-04 18:30 47.37867 8.36437 7081 ft 281 kts 183°
2026-05-04 18:30 47.35945 8.36896 7851 ft 284 kts 155°
2026-05-04 18:31 47.34205 8.38316 8635 ft 287 kts 150°
2026-05-04 18:31 47.32430 8.39696 9416 ft 290 kts 153°
2026-05-04 18:31 47.30613 8.41019 10201 ft 292 kts 153°
2026-05-04 18:31 47.28726 8.42368 10527 ft 313 kts 154°
2026-05-04 18:32 47.26698 8.43826 10703 ft 335 kts 154°
2026-05-04 18:32 47.24572 8.45369 11188 ft 345 kts 154°
2026-05-04 18:32 47.22412 8.46952 11883 ft 348 kts 154°
2026-05-04 18:32 47.20243 8.48559 12618 ft 350 kts 154°
2026-05-04 18:33 47.18061 8.50168 13284 ft 353 kts 156°
2026-05-04 18:33 47.15768 8.51350 13887 ft 356 kts 167°
2026-05-04 18:33 47.13310 8.51883 14481 ft 359 kts 175°
2026-05-04 18:33 47.10812 8.52240 15073 ft 363 kts 175°
2026-05-04 18:34 47.08298 8.52731 15649 ft 367 kts 167°
2026-05-04 18:34 47.05877 8.54000 16214 ft 373 kts 154°
2026-05-04 18:34 47.03709 8.56117 16757 ft 378 kts 140°
2026-05-04 18:34 47.01933 8.58985 17263 ft 384 kts 126°
2026-05-04 18:35 47.00599 8.62412 17782 ft 389 kts 119°
2026-05-04 18:35 46.99334 8.65943 18301 ft 393 kts 119°
2026-05-04 18:35 46.98052 8.69493 18791 ft 397 kts 119°
2026-05-04 18:35 46.96748 8.73071 19287 ft 399 kts 119°
2026-05-04 18:36 46.95436 8.76665 19786 ft 402 kts 119°
2026-05-04 18:36 46.94112 8.80287 20285 ft 405 kts 119°
2026-05-04 18:36 46.92776 8.83940 20743 ft 408 kts 119°
2026-05-04 18:36 46.91433 8.87612 21238 ft 411 kts 119°
2026-05-04 18:37 46.90082 8.91305 21692 ft 414 kts 119°
2026-05-04 18:37 46.88719 8.95039 22140 ft 417 kts 119°
2026-05-04 18:37 46.87354 8.98782 22568 ft 419 kts 119°
2026-05-04 18:37 46.85972 9.02553 22991 ft 422 kts 119°
2026-05-04 18:38 46.84581 9.06342 23403 ft 424 kts 119°
2026-05-04 18:38 46.83178 9.10151 23775 ft 427 kts 120°
2026-05-04 18:38 46.81766 9.13973 24149 ft 430 kts 120°
2026-05-04 18:38 46.80341 9.17823 24521 ft 432 kts 120°
2026-05-04 18:39 46.78909 9.21689 24886 ft 434 kts 120°
2026-05-04 18:39 46.77472 9.25565 25239 ft 436 kts 120°
2026-05-04 18:39 46.76029 9.29458 25584 ft 438 kts 120°
2026-05-04 18:39 46.74576 9.33372 25928 ft 439 kts 120°
2026-05-04 18:40 46.73115 9.37293 26257 ft 441 kts 120°
2026-05-04 18:40 46.71647 9.41228 26577 ft 443 kts 120°
2026-05-04 18:40 46.70173 9.45172 26893 ft 444 kts 120°
2026-05-04 18:40 46.68690 9.49135 27195 ft 446 kts 120°
2026-05-04 18:41 46.67204 9.53111 27485 ft 448 kts 120°
2026-05-04 18:41 46.65716 9.57093 27781 ft 449 kts 120°
2026-05-04 18:41 46.64218 9.61096 28064 ft 451 kts 120°
2026-05-04 18:41 46.62716 9.65100 28332 ft 452 kts 120°
2026-05-04 18:42 46.61200 9.69118 28594 ft 453 kts 120°
2026-05-04 18:42 46.59676 9.73139 28845 ft 455 kts 120°
2026-05-04 18:42 46.58145 9.77173 29081 ft 456 kts 120°
2026-05-04 18:42 46.56613 9.81211 29302 ft 457 kts 120°
2026-05-04 18:43 46.55079 9.85266 29521 ft 459 kts 120°
2026-05-04 18:43 46.53541 9.89330 29734 ft 459 kts 120°
2026-05-04 18:43 46.52000 9.93397 29937 ft 460 kts 120°
2026-05-04 18:43 46.50456 9.97461 30209 ft 460 kts 120°
2026-05-04 18:44 46.48907 10.01524 30487 ft 459 kts 120°
2026-05-04 18:44 46.45180 10.08977 30998 ft 457 kts 131°
2026-05-04 18:44 46.43144 10.12505 31235 ft 456 kts 131°
2026-05-04 18:45 46.41108 10.16034 31485 ft 456 kts 131°
2026-05-04 18:45 46.39099 10.19515 31732 ft 456 kts 131°
2026-05-04 18:45 46.37069 10.23032 31974 ft 455 kts 131°
2026-05-04 18:45 46.35038 10.26554 32211 ft 456 kts 131°
2026-05-04 18:46 46.33008 10.30073 32447 ft 455 kts 131°
2026-05-04 18:46 46.30976 10.33587 32673 ft 455 kts 131°
2026-05-04 18:46 46.28942 10.37094 32909 ft 455 kts 131°
2026-05-04 18:46 46.26908 10.40595 33124 ft 455 kts 131°
2026-05-04 18:47 46.24869 10.44104 33367 ft 455 kts 131°
2026-05-04 18:47 46.22836 10.47603 33595 ft 454 kts 131°
2026-05-04 18:47 46.21490 10.49917 33739 ft 454 kts 131°
2026-05-04 18:47 46.18770 10.54583 34055 ft 454 kts 132°
2026-05-04 18:48 46.17421 10.56894 34200 ft 454 kts 131°
2026-05-04 18:48 46.15384 10.60375 34411 ft 454 kts 132°
2026-05-04 18:48 46.13347 10.63847 34622 ft 454 kts 132°
2026-05-04 18:48 46.11306 10.67320 34834 ft 454 kts 132°
2026-05-04 18:49 46.09267 10.70790 35050 ft 453 kts 132°
2026-05-04 18:49 46.07231 10.74252 35243 ft 453 kts 131°
2026-05-04 18:49 46.05193 10.77719 35444 ft 453 kts 131°
2026-05-04 18:49 46.03160 10.81176 35634 ft 453 kts 131°
2026-05-04 18:50 46.01123 10.84633 35812 ft 453 kts 131°
2026-05-04 18:50 45.99084 10.88092 35985 ft 452 kts 131°
2026-05-04 18:50 45.97048 10.91538 36128 ft 453 kts 131°
2026-05-04 18:50 45.95004 10.94992 36261 ft 454 kts 132°
2026-05-04 18:51 45.92953 10.98452 36405 ft 455 kts 132°
2026-05-04 18:51 45.90901 11.01905 36537 ft 455 kts 132°
2026-05-04 18:51 45.88846 11.05361 36702 ft 454 kts 132°
2026-05-04 18:51 45.86802 11.08800 36942 ft 451 kts 132°
2026-05-04 18:52 45.84772 11.12218 37101 ft 449 kts 131°
2026-05-04 18:52 45.80718 11.19019 37120 ft 448 kts 132°
2026-05-04 18:53 45.76657 11.25793 37111 ft 448 kts 132°
2026-05-04 18:53 45.72596 11.32554 37106 ft 448 kts 132°
2026-05-04 18:54 45.68536 11.39301 37123 ft 448 kts 132°
2026-05-04 18:54 45.64475 11.46046 37120 ft 448 kts 132°
2026-05-04 18:55 45.60411 11.52780 37114 ft 448 kts 132°
2026-05-04 18:55 45.54331 11.62807 37102 ft 447 kts 132°
2026-05-04 18:56 45.50253 11.69519 37096 ft 447 kts 132°
2026-05-04 18:56 45.46173 11.76217 37103 ft 448 kts 132°
2026-05-04 18:57 45.42081 11.82907 37103 ft 448 kts 132°
2026-05-04 18:57 45.37988 11.89584 37098 ft 448 kts 132°
2026-05-04 18:58 45.33893 11.96257 37107 ft 448 kts 132°
2026-05-04 18:58 45.29790 12.02925 37102 ft 448 kts 132°
2026-05-04 18:59 45.25631 12.09510 37083 ft 448 kts 134°
2026-05-04 18:59 45.21257 12.15795 37078 ft 448 kts 136°
2026-05-04 19:00 45.16809 12.21989 37074 ft 448 kts 136°
2026-05-04 19:00 45.12398 12.28229 37073 ft 448 kts 136°
2026-05-04 19:01 45.08005 12.34511 37071 ft 449 kts 136°
2026-05-04 19:01 45.03643 12.40758 37070 ft 449 kts 136°
2026-05-04 19:02 44.99246 12.47017 37068 ft 449 kts 136°
2026-05-04 19:02 44.94834 12.53262 37067 ft 449 kts 136°
2026-05-04 19:03 44.90413 12.59497 37065 ft 449 kts 136°
2026-05-04 19:03 44.85998 12.65726 37065 ft 449 kts 136°
2026-05-04 19:04 44.81580 12.71948 37061 ft 449 kts 136°
2026-05-04 19:04 44.77157 12.78165 37060 ft 449 kts 136°
2026-05-04 19:05 44.72726 12.84373 37064 ft 450 kts 136°
2026-05-04 19:05 44.68291 12.90577 37066 ft 450 kts 136°
2026-05-04 19:06 44.63859 12.96771 37070 ft 450 kts 136°
2026-05-04 19:06 44.59412 13.02961 37074 ft 450 kts 136°
2026-05-04 19:07 44.54963 13.09126 37080 ft 449 kts 136°
2026-05-04 19:07 44.50509 13.15279 37083 ft 450 kts 136°
2026-05-04 19:08 44.46058 13.21435 37084 ft 450 kts 136°
2026-05-04 19:08 44.41603 13.27591 37085 ft 450 kts 136°
2026-05-04 19:09 44.37140 13.33735 37082 ft 450 kts 136°
2026-05-04 19:09 44.32704 13.39820 37084 ft 450 kts 136°
2026-05-04 19:10 44.28230 13.45935 37085 ft 450 kts 136°
2026-05-04 19:10 44.23728 13.52091 37090 ft 450 kts 136°
2026-05-04 19:11 44.19282 13.58166 37085 ft 450 kts 136°
2026-05-04 19:11 44.14802 13.64256 37085 ft 450 kts 136°
2026-05-04 19:12 44.08068 13.73385 37089 ft 450 kts 136°
2026-05-04 19:13 44.03577 13.79463 37100 ft 451 kts 136°
2026-05-04 19:13 43.99081 13.85541 37097 ft 451 kts 136°
2026-05-04 19:14 43.94587 13.91608 37097 ft 451 kts 137°
2026-05-04 19:14 43.90078 13.97666 37094 ft 451 kts 137°
2026-05-04 19:15 43.85564 14.03702 37093 ft 451 kts 137°
2026-05-04 19:15 43.81051 14.09731 37094 ft 451 kts 137°
2026-05-04 19:16 43.76534 14.15761 37093 ft 451 kts 137°
2026-05-04 19:16 43.72018 14.21780 37101 ft 451 kts 137°
2026-05-04 19:17 43.67523 14.27754 37102 ft 452 kts 137°
2026-05-04 19:17 43.62989 14.33768 37105 ft 452 kts 137°
2026-05-04 19:18 43.58452 14.39781 37103 ft 452 kts 137°
2026-05-04 19:18 43.53936 14.45826 37102 ft 453 kts 136°
2026-05-04 19:19 43.49531 14.52040 37103 ft 453 kts 135°
2026-05-04 19:19 43.45156 14.58284 37093 ft 453 kts 135°
2026-05-04 19:20 43.40744 14.64496 37092 ft 454 kts 135°
2026-05-04 19:20 43.36301 14.70669 37086 ft 454 kts 135°
2026-05-04 19:21 43.31853 14.76853 37090 ft 455 kts 135°
2026-05-04 19:21 43.27403 14.83039 37097 ft 456 kts 135°
2026-05-04 19:22 43.22947 14.89218 37093 ft 456 kts 135°
2026-05-04 19:22 43.18484 14.95394 37095 ft 456 kts 135°
2026-05-04 19:23 43.14044 15.01526 37104 ft 456 kts 135°
2026-05-04 19:23 43.09569 15.07694 37112 ft 457 kts 135°
2026-05-04 19:24 43.05092 15.13858 37106 ft 457 kts 135°
2026-05-04 19:24 43.00573 15.20056 37110 ft 457 kts 135°
2026-05-04 19:25 42.96110 15.26162 37111 ft 457 kts 135°
2026-05-04 19:25 42.91584 15.32337 37115 ft 457 kts 135°
2026-05-04 19:26 42.87084 15.38476 37114 ft 458 kts 135°
2026-05-04 19:26 42.82577 15.44614 37112 ft 458 kts 135°
2026-05-04 19:27 42.78101 15.50695 37118 ft 458 kts 135°
2026-05-04 19:27 42.73583 15.56805 37118 ft 458 kts 136°
2026-05-04 19:28 42.69063 15.62904 37109 ft 458 kts 135°
2026-05-04 19:28 42.64543 15.69001 37114 ft 458 kts 135°
2026-05-04 19:29 42.60008 15.75097 37105 ft 460 kts 136°
2026-05-04 19:29 42.55452 15.81203 37118 ft 460 kts 136°
2026-05-04 19:30 42.50896 15.87303 37121 ft 460 kts 136°
2026-05-04 19:30 42.46347 15.93390 37119 ft 460 kts 136°
2026-05-04 19:31 42.41794 15.99468 37116 ft 459 kts 136°
2026-05-04 19:31 42.37241 16.05528 37114 ft 459 kts 136°
2026-05-04 19:32 42.32684 16.11577 37114 ft 459 kts 136°
2026-05-04 19:32 42.28123 16.17612 37110 ft 459 kts 136°
2026-05-04 19:33 42.23562 16.23649 37109 ft 459 kts 136°
2026-05-04 19:33 42.19000 16.29676 37099 ft 459 kts 136°
2026-05-04 19:34 42.14440 16.35689 37108 ft 459 kts 136°
2026-05-04 19:34 42.09868 16.41695 37108 ft 459 kts 136°
2026-05-04 19:35 42.05318 16.47645 37118 ft 459 kts 136°
2026-05-04 19:35 42.00738 16.53626 37117 ft 459 kts 136°
2026-05-04 19:36 41.96153 16.59615 37115 ft 460 kts 136°
2026-05-04 19:36 41.91568 16.65600 37113 ft 460 kts 136°
2026-05-04 19:37 41.86970 16.71577 37113 ft 460 kts 136°
2026-05-04 19:37 41.82368 16.77543 37112 ft 460 kts 136°
2026-05-04 19:38 41.77764 16.83507 37116 ft 461 kts 136°
2026-05-04 19:38 41.73951 16.88494 37114 ft 461 kts 135°
2026-05-04 19:39 41.69359 16.94488 37119 ft 461 kts 135°
2026-05-04 19:39 41.64763 17.00467 37119 ft 461 kts 135°
2026-05-04 19:40 41.60167 17.06428 37118 ft 461 kts 136°
2026-05-04 19:40 41.55563 17.12393 37123 ft 461 kts 135°
2026-05-04 19:41 41.50960 17.18340 37112 ft 461 kts 136°
2026-05-04 19:41 41.46351 17.24289 37113 ft 461 kts 136°
2026-05-04 19:42 41.41734 17.30230 37114 ft 462 kts 136°
2026-05-04 19:42 41.37109 17.36165 37118 ft 462 kts 136°
2026-05-04 19:43 41.32479 17.42090 37119 ft 462 kts 136°
2026-05-04 19:43 41.27852 17.48003 37118 ft 461 kts 136°
2026-05-04 19:44 41.23226 17.53918 37122 ft 462 kts 136°
2026-05-04 19:44 41.18625 17.59787 37127 ft 462 kts 136°
2026-05-04 19:45 41.13982 17.65686 37131 ft 462 kts 136°
2026-05-04 19:45 41.09332 17.71575 37135 ft 462 kts 136°
2026-05-04 19:46 41.04677 17.77471 37136 ft 463 kts 136°
2026-05-04 19:46 41.00016 17.83361 37141 ft 463 kts 136°
2026-05-04 19:47 40.95352 17.89247 37141 ft 463 kts 136°
2026-05-04 19:47 40.90683 17.95116 37141 ft 463 kts 136°
2026-05-04 19:48 40.86003 18.00978 37143 ft 463 kts 136°
2026-05-04 19:48 40.81329 18.06830 37148 ft 463 kts 136°
2026-05-04 19:49 40.76655 18.12668 37148 ft 462 kts 136°
2026-05-04 19:49 40.71986 18.18504 37148 ft 462 kts 136°
2026-05-04 19:50 40.67310 18.24328 37147 ft 462 kts 136°
2026-05-04 19:50 40.62634 18.30138 37142 ft 463 kts 136°
2026-05-04 19:51 40.57950 18.35942 37143 ft 462 kts 136°
2026-05-04 19:51 40.53268 18.41738 37141 ft 462 kts 136°
2026-05-04 19:52 40.48609 18.47484 37139 ft 462 kts 136°
2026-05-04 19:52 40.43919 18.53259 37139 ft 462 kts 136°
2026-05-04 19:53 40.39232 18.59034 37136 ft 462 kts 136°
2026-05-04 19:53 40.34542 18.64802 37135 ft 462 kts 136°
2026-05-04 19:54 40.29852 18.70548 37132 ft 462 kts 136°
2026-05-04 19:54 40.25153 18.76296 37134 ft 462 kts 136°
2026-05-04 19:55 40.20461 18.82029 37134 ft 462 kts 136°
2026-05-04 19:55 40.15761 18.87749 37133 ft 461 kts 136°
2026-05-04 19:56 40.11058 18.93453 37136 ft 461 kts 136°
2026-05-04 19:56 40.06378 18.99175 37132 ft 460 kts 133°
2026-05-04 19:57 40.02440 19.05733 37135 ft 459 kts 125°
2026-05-04 19:57 39.98667 19.12457 37136 ft 460 kts 125°
2026-05-04 19:58 39.94871 19.19165 37127 ft 460 kts 125°
2026-05-04 19:58 39.91067 19.25881 37124 ft 461 kts 125°
2026-05-04 19:59 39.87262 19.32600 37128 ft 461 kts 126°
2026-05-04 19:59 39.83453 19.39304 37131 ft 460 kts 126°
2026-05-04 20:00 39.79670 19.45960 37137 ft 461 kts 125°
2026-05-04 20:00 39.75863 19.52656 37137 ft 461 kts 126°
2026-05-04 20:01 39.72037 19.59333 37140 ft 461 kts 126°
2026-05-04 20:01 39.68206 19.65998 37139 ft 460 kts 126°
2026-05-04 20:02 39.64383 19.72661 37140 ft 460 kts 126°
2026-05-04 20:02 39.60558 19.79315 37141 ft 460 kts 126°
2026-05-04 20:03 39.56714 19.85963 37144 ft 460 kts 126°
2026-05-04 20:03 39.52873 19.92602 37143 ft 460 kts 126°
2026-05-04 20:04 39.49038 19.99234 37142 ft 460 kts 126°
2026-05-04 20:04 39.45164 20.05826 37142 ft 460 kts 130°
2026-05-04 20:05 39.40425 20.11374 37143 ft 461 kts 141°
2026-05-04 20:05 39.35422 20.16551 37141 ft 461 kts 141°
2026-05-04 20:06 39.30412 20.21748 37145 ft 462 kts 141°
2026-05-04 20:06 39.25398 20.26933 37148 ft 462 kts 141°
2026-05-04 20:07 39.20366 20.32098 37148 ft 462 kts 141°
2026-05-04 20:07 39.15374 20.37230 37153 ft 462 kts 141°
2026-05-04 20:08 39.10345 20.42404 37154 ft 463 kts 141°
2026-05-04 20:08 39.05318 20.47567 37153 ft 463 kts 141°
2026-05-04 20:09 39.00250 20.52679 37154 ft 463 kts 142°
2026-05-04 20:09 38.95146 20.57741 37156 ft 464 kts 142°
2026-05-04 20:10 38.90036 20.62806 37157 ft 464 kts 142°
2026-05-04 20:10 38.84938 20.67894 37159 ft 464 kts 141°
2026-05-04 20:11 38.79902 20.73080 37160 ft 465 kts 141°
2026-05-04 20:11 38.74880 20.78298 37159 ft 465 kts 141°
2026-05-04 20:12 38.69847 20.83488 37162 ft 465 kts 141°
2026-05-04 20:12 38.64796 20.88652 37160 ft 465 kts 141°
2026-05-04 20:13 38.59737 20.93810 37158 ft 465 kts 141°
2026-05-04 20:13 38.54794 20.99137 37161 ft 465 kts 138°
2026-05-04 20:14 38.49990 21.04671 37158 ft 465 kts 137°
2026-05-04 20:14 38.45184 21.10206 37159 ft 466 kts 138°
2026-05-04 20:15 38.40330 21.15678 37160 ft 466 kts 138°
2026-05-04 20:15 38.35483 21.21084 37161 ft 466 kts 139°
2026-05-04 20:16 38.30602 21.26529 37163 ft 466 kts 138°
2026-05-04 20:16 38.25728 21.31981 37168 ft 467 kts 138°
2026-05-04 20:17 38.20849 21.37434 37170 ft 467 kts 139°
2026-05-04 20:17 38.15956 21.42874 37168 ft 468 kts 138°
2026-05-04 20:18 38.11174 21.48485 37168 ft 468 kts 135°
2026-05-04 20:18 38.06524 21.54287 37178 ft 469 kts 135°
2026-05-04 20:19 38.01869 21.60082 37173 ft 469 kts 135°
2026-05-04 20:19 37.97164 21.65817 37181 ft 469 kts 136°
2026-05-04 20:20 37.92445 21.71524 37171 ft 469 kts 136°
2026-05-04 20:20 37.87724 21.77232 37170 ft 469 kts 136°
2026-05-04 20:21 37.83005 21.82940 37173 ft 469 kts 136°
2026-05-04 20:21 37.75950 21.91463 37182 ft 470 kts 136°
2026-05-04 20:22 37.71220 21.97153 37180 ft 470 kts 136°
2026-05-04 20:22 37.66492 22.02832 37173 ft 469 kts 136°
2026-05-04 20:23 37.61757 22.08510 37172 ft 469 kts 136°
2026-05-04 20:23 37.57019 22.14184 37182 ft 470 kts 136°
2026-05-04 20:24 37.52280 22.19845 37176 ft 470 kts 136°
2026-05-04 20:24 37.47536 22.25504 37175 ft 469 kts 136°
2026-05-04 20:25 37.42828 22.31111 37168 ft 469 kts 136°
2026-05-04 20:25 37.38006 22.36642 37176 ft 469 kts 140°
2026-05-04 20:26 37.32910 22.41769 37171 ft 469 kts 142°
2026-05-04 20:26 37.27721 22.46759 37172 ft 470 kts 142°
2026-05-04 20:27 37.22580 22.51822 37172 ft 470 kts 141°
2026-05-04 20:27 37.17485 22.56958 37169 ft 470 kts 141°
2026-05-04 20:28 37.12385 22.62085 37173 ft 470 kts 141°
2026-05-04 20:28 37.07269 22.67185 37165 ft 470 kts 141°
2026-05-04 20:29 37.02147 22.72283 37169 ft 471 kts 142°
2026-05-04 20:29 36.97009 22.77367 37173 ft 471 kts 142°
2026-05-04 20:30 36.92742 22.81589 37175 ft 471 kts 142°
2026-05-04 20:30 36.87615 22.86670 37173 ft 471 kts 142°
2026-05-04 20:31 36.82486 22.91760 37174 ft 471 kts 142°
2026-05-04 20:31 36.76517 22.97651 37172 ft 471 kts 142°
2026-05-04 20:32 36.72209 23.01882 37169 ft 471 kts 142°
2026-05-04 20:32 36.67095 23.06903 37173 ft 471 kts 142°
2026-05-04 20:33 36.61941 23.11956 36838 ft 471 kts 142°
2026-05-04 20:33 36.59371 23.14475 36255 ft 472 kts 142°
2026-05-04 20:33 36.56777 23.17013 35362 ft 476 kts 142°
2026-05-04 20:34 36.54163 23.19567 34413 ft 481 kts 142°
2026-05-04 20:34 36.51522 23.22150 33456 ft 485 kts 141°
2026-05-04 20:34 36.48858 23.24758 32387 ft 490 kts 142°
2026-05-04 20:34 36.46162 23.27391 31253 ft 495 kts 142°
2026-05-04 20:35 36.43449 23.30035 30331 ft 495 kts 142°
2026-05-04 20:35 36.40759 23.32650 29698 ft 488 kts 142°
2026-05-04 20:35 36.38096 23.35235 28975 ft 484 kts 142°
2026-05-04 20:35 36.35458 23.37794 28280 ft 479 kts 142°
2026-05-04 20:36 36.32847 23.40330 27595 ft 474 kts 141°
2026-05-04 20:36 36.30261 23.42841 26916 ft 469 kts 142°
2026-05-04 20:36 36.27707 23.45320 26299 ft 464 kts 141°
2026-05-04 20:36 36.25183 23.47770 25712 ft 457 kts 141°
2026-05-04 20:37 36.22696 23.50178 25131 ft 451 kts 141°
2026-05-04 20:37 36.20234 23.52556 24541 ft 446 kts 141°
2026-05-04 20:37 36.17808 23.54898 23994 ft 439 kts 141°
2026-05-04 20:37 36.15418 23.57206 23462 ft 433 kts 141°
2026-05-04 20:38 36.13058 23.59481 22954 ft 427 kts 141°
2026-05-04 20:38 36.10731 23.61717 22462 ft 421 kts 141°
2026-05-04 20:38 36.08491 23.64003 22011 ft 414 kts 133°
2026-05-04 20:38 36.06693 23.66746 21562 ft 408 kts 126°
2026-05-04 20:39 36.05024 23.69548 21112 ft 403 kts 125°
2026-05-04 20:39 36.03373 23.72332 20667 ft 399 kts 125°
2026-05-04 20:39 36.01742 23.75080 20227 ft 395 kts 125°
2026-05-04 20:39 36.00127 23.77798 19754 ft 391 kts 125°
2026-05-04 20:40 35.98525 23.80491 19279 ft 388 kts 125°
2026-05-04 20:40 35.96934 23.83163 18794 ft 385 kts 125°
2026-05-04 20:40 35.95357 23.85813 18319 ft 381 kts 125°
2026-05-04 20:40 35.93792 23.88441 17848 ft 378 kts 125°
2026-05-04 20:41 35.92221 23.91026 17371 ft 376 kts 129°
2026-05-04 20:41 35.90432 23.93308 16897 ft 374 kts 135°
2026-05-04 20:41 35.88565 23.95531 16414 ft 372 kts 135°
2026-05-04 20:41 35.86708 23.97734 15937 ft 370 kts 135°
2026-05-04 20:42 35.84859 23.99927 15461 ft 368 kts 135°
2026-05-04 20:42 35.83023 24.02107 14984 ft 365 kts 135°
2026-05-04 20:42 35.81207 24.04268 14333 ft 359 kts 135°
2026-05-04 20:42 35.79421 24.06394 13434 ft 356 kts 135°
2026-05-04 20:43 35.77647 24.08504 12556 ft 353 kts 135°
2026-05-04 20:43 35.75895 24.10594 11676 ft 349 kts 135°
2026-05-04 20:43 35.74163 24.12662 10795 ft 345 kts 135°
2026-05-04 20:43 35.72448 24.14706 10197 ft 339 kts 135°
2026-05-04 20:44 35.70786 24.16682 10072 ft 326 kts 135°
2026-05-04 20:44 35.69183 24.18583 9940 ft 315 kts 135°
2026-05-04 20:44 35.67635 24.20416 9798 ft 304 kts 135°
2026-05-04 20:44 35.66123 24.22205 9502 ft 300 kts 135°
2026-05-04 20:45 35.64627 24.23976 9138 ft 297 kts 135°
2026-05-04 20:45 35.63145 24.25726 8568 ft 294 kts 135°
2026-05-04 20:45 35.61701 24.27477 7903 ft 291 kts 131°
2026-05-04 20:45 35.60356 24.29314 7247 ft 288 kts 130°
2026-05-04 20:46 35.59044 24.31148 6683 ft 282 kts 130°
2026-05-04 20:46 35.57784 24.32919 6330 ft 272 kts 130°
2026-05-04 20:46 35.56547 24.34660 5832 ft 269 kts 130°
2026-05-04 20:46 35.55328 24.36379 5311 ft 267 kts 130°
2026-05-04 20:47 35.54120 24.38091 4977 ft 258 kts 130°
2026-05-04 20:47 35.52978 24.39712 4777 ft 246 kts 131°
2026-05-04 20:47 35.51662 24.41000 4399 ft 242 kts 151°
2026-05-04 20:47 35.50115 24.41737 4030 ft 237 kts 174°
2026-05-04 20:48 35.48548 24.41579 3898 ft 219 kts 205°
2026-05-04 20:48 35.47418 24.40510 3776 ft 200 kts 237°
2026-05-04 20:48 35.46701 24.39082 3545 ft 195 kts 245°
2026-05-04 20:48 35.46303 24.37517 3291 ft 192 kts 266°
2026-05-04 20:49 35.46377 24.35930 3068 ft 188 kts 286°
2026-05-04 20:49 35.46833 24.34406 3002 ft 188 kts 292°
2026-05-04 20:49 35.47316 24.32931 3008 ft 189 kts 292°
2026-05-04 20:49 35.47807 24.31431 2922 ft 190 kts 292°
2026-05-04 20:50 35.48288 24.29962 2758 ft 182 kts 292°
2026-05-04 20:50 35.48753 24.28537 2503 ft 178 kts 292°
2026-05-04 20:50 35.49209 24.27145 2269 ft 174 kts 291°
2026-05-04 20:50 35.49652 24.25788 2045 ft 168 kts 291°
2026-05-04 20:51 35.50071 24.24505 1820 ft 157 kts 291°
2026-05-04 20:51 35.50456 24.23324 1641 ft 144 kts 291°
2026-05-04 20:51 35.50821 24.22206 1448 ft 139 kts 291°
2026-05-04 20:51 35.51179 24.21105 1268 ft 139 kts 291°
2026-05-04 20:52 35.51536 24.20010 1082 ft 138 kts 291°
2026-05-04 20:52 35.51894 24.18920 891 ft 137 kts 291°
2026-05-04 20:52 35.52244 24.17834 713 ft 137 kts 291°
2026-05-04 20:52 35.52598 24.16750 537 ft 136 kts 291°
2026-05-04 20:53 35.52914 24.15768 490 ft 102 kts 291°
2026-05-04 20:53 35.53132 24.15093 490 ft 76 kts 292°
2026-05-04 20:53 35.53301 24.14574 494 ft 50 kts 292°
2026-05-04 20:53 35.53383 24.14324 492 ft 15 kts 291°
2026-05-04 20:54 35.53435 24.14266 497 ft 10 kts
2026-05-04 20:54 35.53493 24.14292 496 ft 8 kts 23°
2026-05-04 20:54 35.53544 24.14318 493 ft 8 kts 22°
2026-05-04 20:54 35.53590 24.14339 494 ft 7 kts 19°
2026-05-04 20:55 35.53631 24.14357 498 ft 6 kts 21°
2026-05-04 20:55 35.53679 24.14354 494 ft 9 kts 318°
2026-05-04 20:55 35.53712 24.14264 498 ft 14 kts 292°
2026-05-04 20:55 35.53753 24.14140 490 ft 17 kts 292°
2026-05-04 20:56 35.53799 24.13999 498 ft 19 kts 292°
2026-05-04 20:56 35.53849 24.13925 489 ft 7 kts
2026-05-04 20:56 35.53892 24.13945 494 ft 5 kts 21°
2026-05-04 20:56 35.53908 24.13953 498 ft 0 kts 22°